Metar z połowy godziny Komunikat METAR ze strony awiacja.imgw.pl Metar G30 EPSY METAR EPSY 241930Z 29002KT CAVOK 14/10 Q1011=